VK2CZZ Weather Reports


time (UTC)temp
C
wind
direction
speed
KPH
gust
KPH
rain 1hr
cm
rain 24hr
cm
rain mn
cm
humidity
%
barometer
mb
20260510083025 20 190 0.0 0.0 0.00 0.00 0.00 81 1029.8
20260510082020 20 193 0.0 0.0 0.00 0.00 0.00 81 1029.7
20260510081038 20 199 0.0 0.0 0.00 0.00 0.00 81 1029.6
20260510080054 20 198 0.0 0.0 0.00 0.00 0.00 81 1029.5
20260510075022 20 196 0.0 0.0 0.00 0.00 0.00 81 1029.4
20260510074022 20 195 0.0 0.0 0.00 0.00 0.00 81 1029.5
20260510073056 20 200 0.0 0.0 0.00 0.00 0.00 81 1029.4
20260510072037 20 208 0.0 0.0 0.00 0.00 0.00 81 1029.3
20260510071055 20 210 0.0 0.0 0.00 0.00 0.00 82 1029.3
20260510070028 20 211 0.0 0.0 0.00 0.00 0.00 81 1029.3
20260510065026 20 211 0.0 0.0 0.00 0.00 0.00 80 1029.2
20260510064044 20 191 0.0 0.0 0.00 0.00 0.00 80 1029.1
20260510063038 20 191 0.0 0.0 0.00 0.00 0.00 79 1029.1
20260510062031 20 198 0.0 0.0 0.00 0.00 0.00 78 1029.0
20260510061028 20 197 0.0 0.0 0.00 0.00 0.00 78 1028.9
20260510060020 20 200 0.0 0.0 0.00 0.00 0.00 77 1028.8
20260510055036 20 193 0.0 0.0 0.00 0.00 0.00 76 1028.8
20260510054056 21 200 0.0 0.0 0.00 0.00 0.00 75 1028.6
20260510053029 21 206 0.0 0.0 0.00 0.00 0.00 75 1028.6
20260510052022 21 205 0.0 0.0 0.00 0.00 0.00 74 1028.5
20260510051040 21 190 0.0 11.3 0.00 0.00 0.00 73 1028.4
20260510050032 21 190 0.0 0.0 0.00 0.00 0.00 73 1028.4
20260510045031 21 205 0.0 0.0 0.00 0.00 0.00 73 1028.3
20260510044023 21 360 0.0 9.7 0.00 0.00 0.00 70 1028.2
20260510043021 21 202 0.0 0.0 0.00 0.00 0.00 69 1028.1
20260510042038 21 198 0.0 0.0 0.00 0.00 0.00 69 1028.1
20260510041039 21 203 0.0 0.0 0.00 0.00 0.00 69 1028.2
20260510040031 21 196 0.0 0.0 0.00 0.00 0.00 68 1028.2
20260510035047 21 200 0.0 0.0 0.00 0.00 0.00 65 1028.1
20260510034020 22 183 0.0 0.0 0.00 0.00 0.00 66 1028.1
20260510033053 22 211 0.0 0.0 0.00 0.00 0.00 67 1028.1
20260510032026 22 202 0.0 8.0 0.00 0.00 0.00 65 1028.1
20260510031039 22 191 0.0 12.9 0.00 0.00 0.00 64 1028.3
20260510030038 22 207 0.0 0.0 0.00 0.00 0.00 66 1028.4
20260510025036 22 202 0.0 0.0 0.00 0.00 0.00 64 1028.5
20260510024035 22 192 0.0 0.0 0.00 0.00 0.00 64 1028.6
20260510023033 21 208 0.0 0.0 0.00 0.00 0.00 65 1028.7
20260510022028 21 206 0.0 0.0 0.00 0.00 0.00 64 1028.8
20260510021030 22 188 0.0 9.7 0.00 0.00 0.00 61 1029.0
20260510020025 22 228 1.6 16.1 0.00 0.00 0.00 58 1029.0
20260510015038 22 221 0.0 0.0 0.00 0.00 0.00 63 1029.1
20260510014038 21 234 0.0 0.0 0.00 0.00 0.00 63 1029.3
20260510013037 21 259 0.0 0.0 0.00 0.00 0.00 64 1029.4
20260510012033 21 291 0.0 0.0 0.00 0.00 0.00 66 1029.5
20260510011027 21 288 0.0 0.0 0.00 0.00 0.00 65 1029.7
20260510010023 21 271 0.0 0.0 0.00 0.00 0.00 66 1029.8
20260510005017 20 269 0.0 0.0 0.00 0.00 0.00 67 1029.9
20260510004037 20 281 0.0 0.0 0.00 0.00 0.00 69 1030.0
20260510003036 20 275 0.0 0.0 0.00 0.00 0.00 69 1030.0
20260510002031 19 276 0.0 0.0 0.00 0.00 0.00 72 1029.9
20260510001029 18 275 0.0 0.0 0.00 0.00 0.00 73 1029.9
20260510000025 18 273 0.0 0.0 0.00 0.00 0.00 76 1029.8
20260509235022 17 273 0.0 0.0 0.00 0.00 0.00 77 1029.8
20260509234024 17 269 0.0 0.0 0.00 0.00 0.00 79 1029.9
20260509233017 16 275 0.0 0.0 0.00 0.00 0.00 80 1029.8
20260509232034 16 274 0.0 0.0 0.00 0.00 0.00 81 1029.8
20260509231028 16 274 0.0 0.0 0.00 0.00 0.00 82 1029.8
20260509230025 15 275 0.0 0.0 0.00 0.00 0.00 82 1029.8
20260509225019 15 279 0.0 0.0 0.00 0.00 0.00 84 1029.7
20260509224036 14 284 0.0 0.0 0.00 0.00 0.00 86 1029.6
20260509223036 13 284 0.0 0.0 0.00 0.00 0.00 87 1029.7
20260509222051 13 284 0.0 0.0 0.00 0.00 0.00 88 1029.7
20260509221027 12 284 0.0 0.0 0.00 0.00 0.00 89 1029.8
20260509220021 12 284 0.0 0.0 0.00 0.00 0.00 91 1029.7
20260509215018 12 296 0.0 0.0 0.00 0.00 0.00 92 1029.6
20260509214032 11 294 0.0 0.0 0.00 0.00 0.00 92 1029.5
20260509213025 11 294 0.0 0.0 0.00 0.00 0.00 92 1029.5
20260509212020 11 288 0.0 0.0 0.00 0.00 0.00 93 1029.4
20260509211036 11 286 0.0 0.0 0.00 0.00 0.00 93 1029.3
20260509210015 10 309 0.0 0.0 0.00 0.00 0.00 93 1029.1
20260509205031 10 306 0.0 0.0 0.00 0.00 0.00 93 1029.0
20260509204028 10 300 0.0 0.0 0.00 0.00 0.00 93 1029.0
20260509203021 11 300 0.0 0.0 0.00 0.00 0.00 93 1028.8
20260509202037 11 294 0.0 0.0 0.00 0.00 0.00 93 1028.6
20260509201035 11 281 0.0 0.0 0.00 0.00 0.00 93 1028.5
20260509200029 11 279 0.0 0.0 0.00 0.00 0.00 93 1028.3
20260509195021 11 278 0.0 0.0 0.00 0.00 0.00 93 1028.2
20260509194018 11 277 0.0 0.0 0.00 0.00 0.00 93 1028.1
20260509193057 11 277 0.0 0.0 0.00 0.00 0.00 93 1028.0
20260509192030 11 275 0.0 0.0 0.00 0.00 0.00 94 1028.0
20260509191030 11 274 0.0 0.0 0.00 0.00 0.00 94 1027.8
20260509190023 11 274 0.0 0.0 0.00 0.00 0.00 93 1027.7
20260509185040 11 274 0.0 0.0 0.00 0.00 0.00 93 1027.5
20260509184040 11 273 0.0 0.0 0.00 0.00 0.00 93 1027.5
20260509183055 11 274 0.0 0.0 0.00 0.00 0.00 93 1027.4
20260509182029 11 273 0.0 0.0 0.00 0.00 0.00 93 1027.3
20260509181030 11 273 0.0 0.0 0.00 0.00 0.00 93 1027.3
20260509180049 11 273 0.0 0.0 0.00 0.00 0.00 93 1027.1
20260509175044 11 273 0.0 0.0 0.00 0.00 0.00 93 1027.0
20260509174102 11 273 0.0 0.0 0.00 0.00 0.00 92 1027.0
20260509173040 11 273 0.0 0.0 0.00 0.00 0.00 93 1026.9
20260509172035 11 273 0.0 0.0 0.00 0.00 0.00 93 1026.8
20260509171028 11 273 0.0 0.0 0.00 0.00 0.00 93 1026.8
20260509170044 11 273 0.0 0.0 0.00 0.00 0.00 92 1026.8
20260509165040 11 273 0.0 0.0 0.00 0.00 0.00 92 1026.8
20260509164040 11 273 0.0 0.0 0.00 0.00 0.00 92 1026.8
20260509163036 11 273 0.0 0.0 0.00 0.00 0.00 92 1026.8
20260509162050 11 273 0.0 0.0 0.00 0.00 0.00 92 1026.9
20260509161025 11 273 0.0 0.0 0.00 0.00 0.00 92 1027.0
20260509160045 11 273 0.0 0.0 0.00 0.00 0.00 92 1026.9
20260509155019 12 273 0.0 0.0 0.00 0.00 0.00 92 1026.9
20260509154037 12 273 0.0 0.0 0.00 0.00 0.00 92 1027.0
20260509153035 12 273 0.0 0.0 0.00 0.00 0.00 92 1027.0
20260509152030 12 273 0.0 0.0 0.00 0.00 0.00 93 1027.0
20260509151023 11 273 0.0 0.0 0.00 0.00 0.00 93 1026.9
20260509150039 11 235 0.0 0.0 0.00 0.00 0.00 93 1026.8
20260509145059 11 235 0.0 0.0 0.00 0.00 0.00 93 1026.8
20260509144032 11 235 0.0 0.0 0.00 0.00 0.00 93 1026.8
20260509143027 11 235 0.0 0.0 0.00 0.00 0.00 93 1026.8
20260509142024 11 234 0.0 0.0 0.00 0.00 0.00 93 1026.8
20260509141021 11 186 0.0 0.0 0.00 0.00 0.00 93 1026.8
20260509140041 11 186 0.0 0.0 0.00 0.00 0.00 93 1026.8
20260509135033 11 186 0.0 0.0 0.00 0.00 0.00 93 1026.8
20260509134027 11 186 0.0 0.0 0.00 0.00 0.00 93 1026.9
20260509133044 11 186 0.0 0.0 0.00 0.00 0.00 93 1026.9
20260509132040 10 186 0.0 0.0 0.00 0.00 0.00 91 1026.9
20260509131033 11 186 0.0 0.0 0.00 0.00 0.00 91 1026.9
20260509130050 11 186 0.0 0.0 0.00 0.00 0.00 91 1026.9
20260509125028 11 186 0.0 0.0 0.00 0.00 0.00 91 1026.8
20260509124021 11 186 0.0 0.0 0.00 0.00 0.00 91 1026.8
20260509123035 11 186 0.0 0.0 0.00 0.00 0.00 91 1026.8
20260509122051 11 186 0.0 0.0 0.00 0.00 0.00 91 1026.8
20260509121023 11 186 0.0 0.0 0.00 0.00 0.00 90 1026.8
20260509120036 11 186 0.0 0.0 0.00 0.00 0.00 90 1026.9
20260509115055 11 186 0.0 0.0 0.00 0.00 0.00 89 1026.8
20260509114049 12 186 0.0 0.0 0.00 0.00 0.00 89 1026.8
20260509113048 12 186 0.0 0.0 0.00 0.00 0.00 89 1026.8
20260509112022 12 186 0.0 0.0 0.00 0.00 0.00 89 1026.8
20260509111036 12 186 0.0 0.0 0.00 0.00 0.00 88 1026.7
20260509110030 12 186 0.0 0.0 0.00 0.00 0.00 88 1026.6
20260509105023 12 186 0.0 0.0 0.00 0.00 0.00 88 1026.6
20260509104040 12 186 0.0 0.0 0.00 0.00 0.00 87 1026.5
20260509103053 12 186 0.0 0.0 0.00 0.00 0.00 87 1026.6
20260509102029 13 186 0.0 0.0 0.00 0.00 0.00 86 1026.5
20260509101026 13 186 0.0 0.0 0.00 0.00 0.00 85 1026.4
20260509100023 13 186 0.0 0.0 0.00 0.00 0.00 84 1026.4
20260509095101 13 186 0.0 0.0 0.00 0.00 0.00 83 1026.2
20260509094035 13 186 0.0 0.0 0.00 0.00 0.00 83 1026.2
20260509093028 14 186 0.0 0.0 0.00 0.00 0.00 82 1026.2
20260509092021 14 186 0.0 0.0 0.00 0.00 0.00 80 1026.1
20260509091042 15 186 0.0 0.0 0.00 0.00 0.00 79 1026.0
20260509090039 15 186 0.0 0.0 0.00 0.00 0.00 77 1026.0
20260509085057 15 186 0.0 0.0 0.00 0.00 0.00 76 1025.9
20260509084033 16 186 0.0 0.0 0.00 0.00 0.00 76 1025.8